RH
32 32 34 36 36 36 36 35 35 36 35 35 36 37 36 32 27 16 17 21 14 10 10 13 12 15 14 14 15 11 12 14 18 16 16 20 16 19 19 18 22 28 36 40 40
38 39 39 40 39 38 36 36 36 35 34 34 36 36 35 31 29 17 18 23 18 12 10 11 17 16 23 27 27 17 14 15 16 14 15 19 20 18 17 16 15 20 32 23 29
36 39 41 42 41 39 37 38 36 33 32 33 35 36 35 31 29 21 20 26 23 13 9 13 18 19 24 28 28 24 15 18 19 22 26 22 21 21 19 17 13 12 21 27 28
43 44 44 42 40 39 40 37 32 32 36 36 36 38 35 28 30 23 24 26 24 14 12 12 15 21 22 22 28 21 24 22 24 31 28 22 24 21 21 16 21 22 23 31 42
45 45 43 40 39 41 36 32 33 37 37 38 37 39 34 30 28 26 24 18 16 12 13 14 19 22 20 21 24 22 25 29 32 31 30 31 25 23 22 20 24 23 23 28 46
46 44 40 42 41 37 35 38 40 39 37 38 39 40 35 34 32 27 14 14 13 11 12 13 16 21 25 24 21 30 30 25 27 28 29 28 23 28 21 20 23 17 22 28 35
45 43 45 43 36 34 39 40 40 38 37 38 40 41 33 32 31 15 13 14 12 12 12 13 16 21 24 26 31 30 22 20 23 28 27 31 24 26 22 20 20 19 19 18 21
51 50 46 41 37 38 46 42 38 38 40 36 38 39 34 34 19 17 15 14 14 15 15 18 23 23 30 28 26 25 25 30 23 27 28 25 25 18 21 21 19 19 20 24 20
53 48 46 43 42 51 48 41 36 38 40 37 37 34 38 20 17 26 23 19 21 25 24 23 24 30 32 30 36 27 32 31 28 25 23 24 26 20 21 22 22 20 22 25 30
49 45 45 44 45 54 49 43 39 40 39 39 38 35 24 21 29 35 28 27 26 25 25 28 32 27 28 30 44 34 31 29 31 25 26 28 26 20 23 24 24 24 26 28 30
46 44 46 44 47 57 49 44 44 44 45 51 51 32 21 20 29 30 34 29 27 28 32 35 36 36 30 30 28 29 31 31 27 26 33 30 31 24 22 24 24 24 25 29 33
46 45 49 47 49 62 57 54 63 58 63 56 59 27 22 26 25 33 35 32 31 34 36 36 36 32 30 30 30 31 34 35 31 30 37 33 33 25 24 24 26 26 25 30 35
44 51 53 52 68 66 64 65 64 65 66 57 56 30 27 30 37 39 37 35 35 38 37 38 34 34 32 33 35 34 34 35 37 37 34 38 32 25 23 25 26 27 33 35 39
47 55 57 60 72 75 71 66 59 54 69 75 51 35 31 30 37 41 42 39 38 38 39 38 33 32 34 37 33 42 33 38 44 46 50 35 36 26 24 21 23 24 29 35 42
60 65 65 66 76 83 78 68 57 49 98 67 45 38 34 36 40 45 44 40 40 40 41 44 40 40 43 39 33 41 41 45 46 51 57 44 56 22 28 21 20 24 31 37 45
64 70 81 85 78 76 81 71 57 68 94 66 43 45 45 49 48 46 47 44 45 44 44 43 45 40 38 42 38 40 40 44 58 59 72 42 40 22 23 21 25 26 28 40 48
84 78 92 98 95 84 82 70 76 93 48 51 52 41 44 51 51 46 48 48 46 62 54 48 47 41 41 41 42 38 39 76 79 87 43 43 44 24 27 24 27 30 32 42 51
69 84 93 94 98 99 87 74 99 60 54 47 42 45 45 48 52 51 51 49 48 47 56 64 90 47 41 39 36 38 38 60 63 49 35 45 45 29 28 31 35 39 42 48 55
99 100 100 82 98 100 90 100 79 65 46 53 54 55 56 56 53 52 52 49 44 45 52 56 57 45 44 42 39 46 48 40 50 51 58 35 34 27 32 31 34 32 40 43 51
100 99 99 98 100 100 99 94 74 51 54 51 52 48 55 59 59 58 53 46 49 47 43 46 53 46 51 47 51 43 40 55 55 69 66 39 39 36 31 32 33 31 34 42 47
100 100 100 100 100 99 97 92 78 60 50 53 50 48 50 60 54 55 46 51 45 50 46 42 46 57 52 53 45 51 48 49 50 54 69 51 34 29 29 30 32 28 34 44 54
100 100 100 100 100 99 93 88 78 70 58 58 54 47 48 56 61 56 54 45 46 45 51 40 47 60 53 46 45 46 41 40 59 63 60 63 51 28 27 32 34 33 36 42 42
98 98 100 100 99 97 95 93 96 91 80 70 61 59 47 52 68 57 55 58 48 44 47 44 54 69 68 61 55 56 50 43 43 47 62 77 46 33 34 35 37 38 38 38 40
99 100 99 100 100 99 98 97 98 97 96 98 94 90 89 86 73 84 82 65 54 51 50 47 75 59 56 44 48 60 56 51 49 70 62 54 44 32 32 36 36 38 40 40 42
100 100 100 100 99 98 98 100 100 99 98 94 96 94 96 100 98 99 93 92 84 78 78 79 100 98 80 84 90 72 61 54 62 57 76 54 48 38 32 31 35 42 46 50 51
100 98 100 100 100 98 100 100 100 98 100 100 99 98 98 100 98 99 96 97 98 98 96 96 96 96 84 59 65 75 64 74 92 76 74 69 62 38 35 40 47 46 53 54 57
99 99 100 100 97 100 99 96 97 96 98 94 88 98 99 96 94 98 98 91 77 92 95 97 100 97 83 55 63 80 62 56 54 53 55 66 45 33 38 43 46 49 60 60 64
Wind_Speed
5 6 7 9 10 12 13 16 17 18 18 18 15 17 15 12 8 7 6 10 10 7 4 2 2 2 4 4 5 2 2 2 3 3 3 3 3 3 3 5 5 6 5 5 6
5 6 7 9 10 12 14 16 17 19 19 18 15 17 14 10 5 4 9 11 10 9 5 2 1 2 2 3 3 1 1 2 2 3 2 2 3 2 5 7 9 8 10 11 9
5 6 8 10 12 14 15 16 17 18 19 18 16 16 12 8 3 6 10 9 9 7 4 3 2 2 3 4 5 3 2 4 2 2 2 3 6 4 6 8 8 4 3 6 8
5 7 9 12 15 17 18 19 19 21 21 18 15 14 13 6 2 8 10 10 9 6 3 2 3 2 3 2 0 3 2 2 1 1 2 4 5 7 11 11 5 5 5 6 8
7 9 11 13 14 16 18 20 21 22 20 17 14 14 9 3 3 8 11 9 6 3 3 3 4 2 3 3 1 2 2 1 2 5 6 7 11 10 16 12 9 10 14 9 8
8 10 12 13 15 18 20 22 22 23 20 16 11 11 7 2 6 11 9 6 5 5 6 5 5 6 6 4 3 3 3 4 3 4 2 5 4 3 1 4 5 7 5 9 12
8 9 11 13 15 17 19 21 22 21 18 12 11 9 4 4 9 11 7 6 6 6 7 7 6 5 2 3 3 1 1 3 6 7 3 4 4 5 4 5 4 2 3 6 12
6 8 11 13 14 15 17 19 20 17 10 15 8 5 4 7 7 7 6 6 6 6 6 6 6 7 4 3 1 2 1 3 3 8 4 7 3 3 1 5 9 14 15 12 12
9 10 12 14 15 16 15 15 15 14 9 8 6 5 3 5 6 9 7 4 4 5 7 5 3 4 2 1 1 5 4 5 4 4 6 4 12 4 9 14 19 16 14 11 9
11 12 13 14 15 15 15 16 15 3 14 4 5 4 5 3 5 9 5 5 3 2 2 4 3 2 2 3 2 3 4 4 6 3 5 11 18 13 14 11 7 7 7 6 7
11 12 13 15 15 16 16 14 9 3 14 4 6 1 1 3 4 8 7 2 3 5 4 5 2 4 3 4 2 1 4 8 8 3 6 7 16 19 10 1 2 6 8 8 8
13 13 12 13 14 14 14 9 9 7 6 3 3 1 3 4 4 4 5 1 3 2 3 1 3 3 2 1 1 4 7 6 6 2 5 9 19 16 4 3 1 5 8 9 11
15 14 13 13 14 11 11 11 13 12 4 1 1 1 2 3 2 2 4 2 3 1 3 1 3 4 2 2 4 5 6 3 5 8 5 10 8 4 4 4 4 5 6 9 14
17 16 15 13 10 8 9 11 14 13 3 3 4 4 3 2 0 0 3 2 2 1 0 1 2 2 2 5 4 4 2 2 6 7 4 5 6 4 5 7 6 4 8 10 12
19 17 17 14 10 9 10 10 11 6 5 1 3 5 7 6 5 3 2 1 2 2 2 1 4 5 5 3 5 2 1 3 3 4 4 3 3 2 2 4 5 2 8 10 12
23 19 19 17 15 10 9 9 7 0 7 1 2 1 3 3 4 3 1 2 3 2 1 2 1 2 2 2 2 2 2 2 2 1 2 3 3 4 4 4 2 1 7 10 13
26 23 20 18 14 8 7 4 3 5 2 4 2 0 4 1 2 3 2 3 3 2 2 2 3 2 2 4 3 3 3 3 2 1 3 3 5 10 3 4 3 4 6 9 10
31 24 24 23 18 12 8 1 9 5 5 2 4 7 7 7 3 3 3 5 5 3 2 3 4 6 5 3 1 2 2 1 5 3 6 6 8 3 1 1 4 5 4 6 8
25 22 28 27 25 20 15 8 7 7 4 9 3 4 7 6 5 7 8 5 7 13 8 6 6 3 3 2 2 5 4 2 2 1 4 5 3 10 4 10 7 5 4 5 4
15 25 30 31 32 31 8 19 10 17 8 4 13 14 10 9 9 8 9 6 5 10 3 4 5 3 4 3 3 3 6 3 1 4 6 6 6 9 3 4 7 7 5 2 2
12 8 12 27 36 21 13 10 7 19 22 11 16 12 9 8 10 7 6 4 6 8 6 7 6 4 4 9 10 4 3 2 2 3 4 8 5 3 2 5 7 8 5 5 3
6 3 11 27 11 7 13 5 8 14 26 15 10 17 18 13 11 13 13 11 17 16 10 9 5 8 12 3 0 3 9 13 8 7 5 5 12 6 4 4 6 8 6 6 7
6 4 5 24 5 8 2 4 4 4 6 7 15 13 19 21 10 17 14 3 18 14 11 9 5 7 4 2 2 6 8 10 8 7 17 11 10 4 2 7 10 11 7 8 12
2 2 5 9 4 2 2 2 3 4 1 1 2 3 2 6 4 3 5 2 7 4 7 12 5 12 14 6 4 6 10 12 15 13 15 20 28 22 15 14 13 13 14 15 15
4 3 3 2 4 4 2 1 1 3 6 3 4 3 2 1 1 2 4 2 1 6 3 5 7 6 15 12 11 17 17 15 18 20 14 21 23 20 23 21 18 16 15 18 16
4 3 3 3 5 1 6 5 8 4 2 2 1 1 4 2 2 2 3 5 3 7 7 6 3 5 12 13 17 21 18 16 18 20 23 26 31 26 35 28 25 24 11 10 10
9 11 3 5 2 3 2 4 5 6 9 12 8 4 3 6 8 8 10 10 10 4 7 4 4 4 9 9 11 14 18 20 19 19 21 21 26 24 19 18 17 15 7 9 8
Wind_Direction
40 32 17 6 0 356 354 353 356 356 356 356 354 353 347 344 347 19 17 6 7 11 13 50 33 96 92 69 63 76 172 133 127 163 108 150 210 190 227 249 237 230 240 241 257
26 18 11 2 354 352 353 351 351 352 353 353 350 351 351 350 348 11 3 1 0 360 10 38 103 147 70 53 19 13 49 120 166 169 171 191 249 264 242 230 245 244 241 250 256
2 1 358 352 349 349 348 346 346 346 348 349 349 352 354 354 7 1 358 352 352 3 1 13 45 64 68 47 21 17 86 161 171 238 255 270 264 235 253 264 253 250 224 244 240
354 352 350 349 347 345 344 342 344 343 344 346 347 350 352 12 355 350 347 337 341 350 12 31 43 24 68 81 316 155 171 183 122 117 264 274 296 275 260 278 328 291 267 256 237
343 346 347 346 344 342 341 340 341 341 341 344 346 347 356 32 21 349 344 343 355 7 34 80 73 129 144 129 123 26 59 11 332 304 278 279 274 277 281 285 282 292 270 258 240
338 342 343 344 345 344 342 340 340 338 338 340 348 350 358 33 355 353 355 13 34 57 63 84 97 85 75 50 22 13 344 328 354 348 275 290 284 317 130 288 296 309 282 245 237
333 337 340 343 346 346 342 340 338 338 339 345 345 355 31 58 359 0 18 47 59 70 73 75 84 81 84 91 18 337 68 132 33 344 343 309 244 223 299 318 315 33 7 307 243
325 330 334 339 341 343 342 342 339 338 350 346 347 25 75 18 22 17 29 53 65 71 67 64 79 86 74 104 21 15 94 332 37 356 327 337 278 148 273 326 295 291 292 283 263
319 326 332 336 339 343 343 340 335 329 353 4 45 50 83 21 28 21 30 43 55 63 52 47 67 74 74 12 110 38 329 335 304 56 326 349 296 218 302 306 297 296 293 288 261
309 317 325 332 338 341 347 340 332 324 355 69 35 101 54 13 47 25 17 38 39 1 20 31 34 95 39 9 3 315 319 298 280 352 316 289 276 297 316 309 327 348 351 320 274
294 308 319 328 333 338 349 350 350 337 344 7 317 160 121 106 80 23 23 22 33 49 19 14 47 63 65 27 57 233 252 269 287 302 309 273 292 299 324 315 31 15 3 0 346
290 298 308 317 327 335 353 22 19 324 303 349 315 209 134 128 142 32 24 106 77 89 309 187 108 143 134 154 257 256 283 287 286 230 302 296 285 301 215 205 307 336 352 347 339
280 290 299 309 320 326 352 2 349 345 272 301 186 235 166 147 148 30 38 81 62 96 25 267 106 142 191 211 247 244 259 307 297 323 270 298 261 203 208 243 260 335 342 346 344
272 279 289 303 313 330 339 341 345 346 301 224 189 182 175 142 254 110 47 104 110 62 50 354 104 183 216 259 207 285 148 286 301 322 309 354 299 255 203 236 229 341 354 353 351
267 273 280 284 284 307 310 326 339 2 340 199 176 174 164 165 155 192 56 90 167 137 201 206 184 209 232 220 181 253 117 282 288 271 308 178 241 245 206 219 205 341 352 355 357
264 263 268 274 277 281 296 311 323 150 236 358 357 272 196 174 165 142 141 100 124 138 322 284 120 220 359 48 351 63 273 217 131 228 252 72 291 264 202 194 185 351 11 9 10
257 253 256 260 262 275 268 287 259 209 149 156 156 6 315 153 144 168 171 191 227 267 231 230 194 166 195 188 170 183 248 294 277 210 290 151 243 257 256 233 304 341 350 352 1
258 244 241 251 247 245 223 208 222 219 220 163 161 149 193 173 190 170 180 226 214 189 164 257 283 187 170 249 187 184 293 219 282 283 304 171 242 237 160 307 255 283 301 332 354
257 248 231 237 228 219 193 216 227 179 197 163 117 213 203 203 212 182 211 219 200 185 192 189 245 153 192 160 227 152 197 23 304 98 281 255 286 269 245 246 246 262 299 340 21
220 230 226 225 215 205 207 233 221 202 147 178 216 195 201 189 193 201 188 177 202 195 214 184 276 196 135 144 69 256 142 126 145 264 255 239 259 250 207 199 200 214 229 286 332
205 222 215 214 207 193 221 218 211 216 202 198 234 243 217 182 209 198 222 165 189 170 188 158 218 139 162 203 194 154 190 196 287 222 266 292 265 177 220 197 208 208 236 245 243
288 223 188 189 186 220 228 226 210 196 215 226 224 223 224 199 206 221 229 226 168 156 175 201 200 230 230 154 78 238 222 202 222 214 230 280 268 164 198 199 226 249 248 251 258
283 290 216 185 216 212 270 241 225 179 211 214 227 235 227 229 231 223 229 174 169 172 184 174 218 244 216 189 175 217 200 215 240 257 246 243 254 157 210 239 240 244 246 252 257
253 271 248 220 248 11 116 257 236 19 23 3 329 99 136 211 245 167 172 140 180 223 168 163 213 239 246 304 108 195 200 215 229 241 251 239 263 266 262 250 243 258 275 276 269
217 242 263 269 260 205 112 102 248 324 1 8 3 328 32 228 339 207 230 139 105 156 140 190 231 213 261 269 266 261 253 230 220 233 246 270 264 273 269 268 279 279 275 276 278
203 213 220 272 278 276 171 190 196 173 197 302 231 32 355 228 283 158 173 177 193 171 169 192 242 230 264 256 253 256 255 241 223 236 242 250 262 266 276 289 278 275 259 273 285
223 237 230 221 196 200 223 196 196 177 212 225 248 288 262 228 215 266 266 254 258 215 199 193 208 200 266 276 271 269 243 236 234 234 233 247 257 277 286 281 270 275 250 276 281